User: anonymous   Login
Location: 02324
(41.9834°N, 70.9022°W)
Time: 07:14:46
(UTC-05:00)
Language:

Resurs 01 Rocket - Orbit

View from above orbital plane
View from above orbital plane
View from above satellite
View from above satellite

Ground track
Ground track

The orbit data is extracted from the following two-line orbital elements,

1 23343U 94074B   17348.72545647 -.00000020 +00000-0 +46894-5 0  9991
2 23343 098.1316 027.3873 0006301 204.0996 267.5219 14.76719138243261
Epoch (UTC): 14 December 2017 17:24:39
Eccentricity: 0.0006301
inclination: 98.1316°
perigee height: 635 km
apogee height: 644 km
right ascension of ascending node: 27.3873°
argument of perigee: 204.0996°
revolutions per day: 14.76719138
mean anomaly at epoch: 267.5219°
orbit number at epoch: 24326

The dashed part of the orbit path shows where the satellite is in the earth's shadow,  

DLR